Weather History for West Palm Beach, FL

Change the Weather History Date:

Thursday, April 10, 2014

  Actual Average Record
Temperature  
Mean Temperature 69 °F 73 °F  
Max Temperature 78 °F 81 °F 90 °F (1961)
Min Temperature 59 °F 65 °F 45 °F (1916)
Degree Days  
Heating Degree Days 0 0  
Month to date heating degree days 0 0  
Since 1 July heating degree days 122 229  
Cooling Degree Days 4 8  
Month to date cooling degree days 91 77  
Year to date cooling degree days 639 505  
Growing Degree Days 18 (Base 50)    
Moisture  
Dew Point 51 °F    
Average Humidity 58    
Maximum Humidity 84    
Minimum Humidity 31    
Precipitation  
Precipitation 0.00 in 0.13 in 3.04 in (1933)
Month to date precipitation 0.06 1.35  
Year to date precipitation 13.94 11.89  
Snow  
Snow 0.00 in - - ()
Month to date snowfall 0.0  
Since 1 July snowfall 0.0  
Snow Depth 0.00 in    
Sea Level Pressure  
Sea Level Pressure 30.21 in    
Wind  
Wind Speed 11 mph (NE)    
Max Wind Speed 21 mph    
Max Gust Speed 25 mph    
Visibility 10 miles    
Events      
T = Trace of Precipitation, MM = Missing Value Source: NWS Daily Summary

Daily Weather History Graph

Daily Weather History Graph

Search for Another Location

Airport:

Trip Planner

Search our weather history database for the weather conditions in past years. The results will help you decide how hot, cold, wet, or windy it might be!

Date:

Astronomy

Apr. 10, 2014 Rise Set
Actual Time 7:01 AM EDT 7:41 PM EDT
Civil Twilight 6:38 AM EDT 8:05 PM EDT
Nautical Twilight 6:10 AM EDT 8:33 PM EDT
Astronomical Twilight 5:42 AM EDT 9:01 PM EDT
Moon 3:46 PM EDT (4/10) 3:59 AM EDT (4/10)
Length of Visible Light 13h 27m
Length of Day
12h 40m
Waxing Gibbous, 79% of the Moon is Illuminated
Apr 10
Waxing Gibbous
Apr 15
Full
Apr 22
Last Quarter
Apr 29
New
May 6
First Quarter

Hourly Weather History & Observations

Time (EDT) Temp. Dew Point Humidity Pressure Visibility Wind Dir Wind Speed Gust Speed Precip Events Conditions
12:53 AM 66.9 °F 52.0 °F 59% 30.16 in 10.0 mi North 4.6 mph - N/A   Scattered Clouds
1:53 AM 70.0 °F 46.0 °F 42% 30.16 in 10.0 mi NNE 6.9 mph - N/A   Partly Cloudy
2:53 AM 66.0 °F 46.9 °F 50% 30.15 in 10.0 mi NNE 3.5 mph - N/A   Partly Cloudy
3:53 AM 64.9 °F 48.0 °F 54% 30.15 in 10.0 mi North 3.5 mph - N/A   Scattered Clouds
4:53 AM 61.0 °F 48.9 °F 64% 30.15 in 10.0 mi NW 4.6 mph - N/A   Partly Cloudy
5:53 AM 61.0 °F 50.0 °F 67% 30.17 in 10.0 mi NNW 4.6 mph - N/A   Partly Cloudy
6:53 AM 61.0 °F 55.0 °F 81% 30.19 in 10.0 mi NW 5.8 mph - N/A   Scattered Clouds
7:53 AM 61.0 °F 55.0 °F 81% 30.22 in 10.0 mi WNW 5.8 mph - N/A   Scattered Clouds
8:53 AM 72.0 °F 50.0 °F 46% 30.23 in 10.0 mi ENE 13.8 mph - N/A   Mostly Cloudy
9:53 AM 75.9 °F 48.0 °F 37% 30.25 in 10.0 mi NE 13.8 mph - N/A   Mostly Cloudy
10:53 AM 77.0 °F 45.0 °F 32% 30.27 in 10.0 mi ENE 15.0 mph - N/A   Scattered Clouds
11:53 AM 78.1 °F 48.9 °F 36% 30.26 in 10.0 mi ENE 13.8 mph - N/A   Scattered Clouds
12:53 PM 75.9 °F 53.1 °F 45% 30.25 in 10.0 mi East 13.8 mph - N/A   Mostly Cloudy
1:53 PM 75.9 °F 54.0 °F 46% 30.25 in 10.0 mi East 13.8 mph - N/A   Mostly Cloudy
2:53 PM 75.0 °F 53.1 °F 46% 30.23 in 10.0 mi East 16.1 mph - N/A   Mostly Cloudy
3:53 PM 77.0 °F 53.1 °F 43% 30.21 in 10.0 mi East 16.1 mph 23.0 mph N/A   Scattered Clouds
4:53 PM 75.9 °F 53.1 °F 45% 30.21 in 10.0 mi East 17.3 mph - N/A   Scattered Clouds
5:53 PM 75.0 °F 51.1 °F 43% 30.21 in 10.0 mi ENE 16.1 mph - N/A   Scattered Clouds
6:53 PM 73.9 °F 48.0 °F 40% 30.21 in 10.0 mi East 13.8 mph 20.7 mph N/A   Scattered Clouds
7:53 PM 73.0 °F 48.0 °F 41% 30.22 in 10.0 mi ENE 9.2 mph - N/A   Scattered Clouds
8:53 PM 72.0 °F 48.9 °F 44% 30.23 in 10.0 mi East 6.9 mph - N/A   Partly Cloudy
9:53 PM 72.0 °F 51.1 °F 48% 30.25 in 10.0 mi East 12.7 mph - N/A   Partly Cloudy
10:53 PM 71.1 °F 54.0 °F 55% 30.25 in 10.0 mi East 8.1 mph - N/A   Partly Cloudy
11:53 PM 71.1 °F 55.0 °F 57% 30.24 in 10.0 mi East 8.1 mph - N/A   Partly Cloudy